Flag for Israel Weather past 2 weeks in Petah Tikva, Israel

Now
84 °F

Scattered clouds.


Feels Like: 90 °F
Forecast: 76 / 90 °F
Wind: 6 mph from West

Location: Ben Gurion International Airport

Current Time: Jul 29, 2014 at 10:25:10 AM

Latest Report: Jul 29, 2014 at 9:50 AM


Visibility: N/A

Pressure: 29.83 "Hg

Humidity: 66%

Dew point: 72 °F

Location of Petah TikvaLocation

Historic Weather in Petah Tikva — Graph

°F

Petah Tikva temperature yesterday

Maximum temperature yesterday: 90 °F (at 1:20 PM)
Minimum temperature yesterday: 75 °F (at 3:20 AM)
Average temperature yesterday: 82 °F

Past Weeks' High & Low Weather Summary

 TemperatureHumidityPressure
High90 °F (Jul 23, 12:20 PM)89% (Jul 24, 3:20 AM)29.92 "Hg (Jul 24, 3:20 AM)
Low72 °F (Jul 26, 5:50 AM)46% (Jul 16, 11:20 AM)29.71 "Hg (Jul 25, 3:20 PM)
Average81 °F66%29.80 "Hg
* Reported Jul 14 9:20 AM — Jul 29 9:20 AM, Petah Tikva, Weather by CustomWeather, © 2014

Note: Actual official high and low records may vary slightly from our data, if they occured in-between our weather recording intervals... More about our weather records

Advertising

Petah Tikva weather history for previous 24 hours

 ConditionsComfort  
Time TempWeatherWind HumidityBarometerVisibility
9:20 AM
Jul 29
84 °FScattered clouds.7 mph66%29.83 "HgN/A
8:50 AM82 °FScattered clouds.7 mph70%29.83 "HgN/A
8:20 AM81 °FPassing clouds.7 mph74%29.83 "HgN/A
7:50 AM81 °FPassing clouds.7 mph74%29.83 "HgN/A
7:20 AM79 °FScattered clouds.7 mph79%29.83 "HgN/A
6:50 AM77 °FPassing clouds.6 mph79%29.83 "HgN/A
6:20 AM77 °FPassing clouds.5 mph79%29.80 "HgN/A
5:50 AM77 °FPassing clouds.6 mph79%29.80 "HgN/A
5:20 AM77 °FPassing clouds.6 mph79%29.80 "HgN/A
4:50 AM77 °FPassing clouds.6 mph79%29.80 "HgN/A
4:20 AM77 °FPassing clouds.7 mph79%29.80 "HgN/A
3:50 AM77 °FPassing clouds.6 mph79%29.80 "HgN/A
3:20 AM77 °FPassing clouds.5 mph79%29.83 "HgN/A
2:50 AM77 °FPassing clouds.6 mph79%29.83 "HgN/A
2:20 AM79 °FPassing clouds.5 mph74%29.83 "HgN/A
1:50 AM79 °FPassing clouds.5 mph74%29.83 "HgN/A
1:20 AM79 °FPassing clouds.5 mph74%29.83 "HgN/A
12:50 AM79 °FPassing clouds.3 mph79%29.83 "HgN/A
11:50 PM
Jul 28
79 °FPassing clouds.3 mph79%29.83 "HgN/A
11:20 PM79 °FPassing clouds.2 mph79%29.83 "HgN/A
10:50 PM81 °FPassing clouds.2 mph74%29.86 "HgN/A
10:20 PM81 °FPassing clouds.2 mph74%29.86 "HgN/A
9:50 PM81 °FPassing clouds.3 mph74%29.86 "HgN/A
9:20 PM81 °FPassing clouds.3 mph74%29.86 "HgN/A
8:50 PM81 °FPassing clouds.7 mph74%29.86 "HgN/A
8:20 PM81 °FScattered clouds.7 mph74%29.86 "HgN/A
7:50 PM82 °FPartly sunny.6 mph70%29.86 "HgN/A
7:20 PM82 °FScattered clouds.8 mph70%29.86 "HgN/A
6:50 PM82 °FScattered clouds.9 mph70%29.83 "HgN/A
6:20 PM84 °FScattered clouds.12 mph66%29.83 "HgN/A
5:50 PM84 °FScattered clouds.12 mph66%29.83 "HgN/A
5:20 PM86 °FScattered clouds.10 mph62%29.86 "HgN/A
4:50 PM88 °FScattered clouds.12 mph59%29.86 "HgN/A
4:20 PM88 °FScattered clouds.12 mph59%29.86 "HgN/A
3:50 PM88 °FScattered clouds.12 mph59%29.86 "HgN/A
3:20 PM88 °FScattered clouds.10 mph59%29.86 "HgN/A
2:50 PM88 °FPassing clouds.12 mph55%29.86 "HgN/A
2:20 PM88 °FPassing clouds.12 mph55%29.86 "HgN/A
1:50 PM88 °FPassing clouds.10 mph55%29.86 "HgN/A
1:20 PM90 °FPassing clouds.12 mph52%29.89 "HgN/A
12:50 PM88 °FPassing clouds.10 mph55%29.89 "HgN/A
12:20 PM88 °FPassing clouds.10 mph55%29.89 "HgN/A
11:50 AM88 °FScattered clouds.10 mph55%29.89 "HgN/A
11:20 AM88 °FScattered clouds.7 mph55%29.92 "HgN/A
10:50 AM88 °FScattered clouds.5 mph55%29.92 "HgN/A
10:20 AM86 °FPartly sunny.6 mph59%29.92 "HgN/A
Weather by CustomWeather, © 2014

See weather overviewHow to use our weather pages